Вернуться в каталог

ONEWEB-0335

АктивенСвязьPO
NORAD 49201·PAYLOAD·🇬🇧 United Kingdom

Запущен Sep 14, 2021 с Baikonur Cosmodrome

Loading…

Ближайшие Пролёты (ближайшие 24 часа)

TLE

СвежийSource: CelesTrak SupGP

Эпоха: Sep 14, 2026, 15:58 UTC

1 49201C 21083R   26257.66544398 -.00000230  00000+0 -63129-3 0  2574
2 49201  87.8922 302.4294 0001999 101.2962   1.2763 13.13474325    10

Отслеживайте ONEWEB-0335 в реальном времени с AllMySat

Download on the App Store